Location: Kapuskasing
(49.3803°N, 82.4001°W)
Time: 09:58:46
(UTC-04:00)

RS-44 - Pass Details

Date: 20 March 2026
Orbit: 1175 x 1510 km, 82.5° (Epoch: 11 April)

Event Time Altitude Azimuth Distance (km) Brightness Sun altitude
Rises 02:58:09 0° 350° (N) 4,429 ? -37.8°
Reaches altitude 10° 03:00:57 10° 353° (N) 3,494 ? -37.6°
Maximum altitude 03:09:22 67° 76° (ENE) 1,575 ? -36.9°
Enters shadow 03:10:13 63° 106° (ESE) 1,612 ? -36.8°
